Temp
16 15 14 14 12 11 11 11 11 11 11 12 14 15 16 16 15 13 12 24 26 24 23 22 20 22 22 21 20 18 19 19 22 24 27 27 27 28 29 28 29 28 26 24 20
14 13 13 11 11 11 11 11 11 10 11 12 15 15 16 15 13 12 26 25 25 24 22 21 18 20 19 20 20 20 17 20 21 24 27 26 27 27 29 28 27 24 23 21 20
11 11 10 10 10 10 10 10 11 11 11 12 15 17 16 15 13 20 26 25 23 23 24 23 21 21 21 20 20 19 19 21 23 23 25 26 25 28 28 28 26 24 22 22 20
11 10 10 10 10 10 10 10 10 11 11 12 13 16 16 14 22 25 27 24 22 22 23 22 20 20 19 20 20 22 21 23 24 25 26 27 25 26 28 27 27 24 23 22 21
10 10 9 9 9 9 9 10 11 12 12 12 14 16 13 15 16 24 25 23 21 22 23 20 21 19 21 21 21 22 23 23 23 23 24 26 25 27 28 26 26 25 23 22 21
10 9 9 9 9 9 9 9 9 11 10 11 15 14 13 17 24 23 23 23 23 22 22 22 21 20 21 22 22 23 22 24 24 24 25 26 27 28 25 26 25 24 23 22 22
11 10 9 9 9 8 9 9 9 10 10 10 11 11 13 18 23 22 22 23 23 23 20 23 23 24 22 23 23 25 25 24 24 25 26 25 27 27 25 26 24 23 23 22 22
11 10 9 9 9 8 9 9 9 9 10 10 9 11 14 23 22 22 21 22 22 23 24 24 24 24 24 25 23 25 25 25 26 23 26 27 26 25 24 24 22 22 21 20 19
11 9 8 9 9 8 8 10 11 9 10 10 11 11 16 21 21 23 23 22 21 22 24 24 25 23 24 23 22 22 25 24 26 24 25 26 25 23 23 22 21 20 19 19 18
11 9 8 8 8 8 9 13 12 11 10 10 11 14 18 23 24 23 22 24 22 21 23 24 20 21 18 20 22 24 25 25 25 27 26 23 23 21 22 21 19 19 18 18 18
12 9 8 8 8 8 10 11 11 12 12 16 18 20 24 26 26 23 23 24 24 23 22 22 21 20 21 22 24 25 25 25 24 25 26 23 20 20 20 18 18 18 17 18 18
11 9 8 8 8 8 7 8 17 21 20 16 18 18 21 24 24 23 25 24 23 23 23 21 21 22 23 22 24 25 25 24 24 24 23 20 19 19 19 19 19 18 17 18 17
12 9 8 8 8 7 7 12 20 20 19 21 18 20 21 22 23 24 24 24 24 23 23 22 25 23 24 23 24 24 24 25 25 23 22 21 20 20 20 20 19 18 17 17 16
11 9 8 8 10 8 8 18 20 18 18 22 21 22 23 23 24 25 25 25 25 23 22 23 24 25 24 24 24 25 24 26 25 23 21 22 20 20 20 20 20 18 17 16 15
10 9 8 7 8 7 18 19 19 18 19 25 24 25 23 25 26 25 27 26 24 24 24 24 26 25 24 24 24 25 25 25 24 22 22 23 20 20 19 20 19 19 18 16 15
12 11 7 8 7 15 17 18 19 19 19 24 26 25 25 26 27 26 26 27 25 25 25 24 26 27 26 23 26 22 22 20 18 19 21 24 22 21 18 21 22 19 18 16 14
11 14 8 7 10 15 15 15 19 18 23 24 25 25 25 26 25 26 25 24 23 23 24 25 26 27 25 24 24 22 20 19 21 19 21 19 21 21 20 19 20 19 17 15 14
10 15 14 14 16 15 14 18 20 21 22 24 24 24 24 25 26 26 24 24 24 23 20 23 24 26 27 25 23 23 22 19 23 19 20 20 22 23 20 19 19 19 17 15 13
9 12 11 15 12 14 15 18 19 20 24 24 24 24 24 25 25 24 23 24 24 23 23 23 24 26 26 25 25 24 21 20 17 16 19 18 20 20 19 18 17 16 16 15 14
6 6 11 14 13 14 16 18 21 22 23 23 23 22 22 23 23 23 24 23 24 23 24 24 24 25 25 25 22 25 21 22 17 20 21 19 20 20 19 19 17 16 16 15 14
6 10 14 13 14 15 17 19 21 23 24 23 22 21 22 22 23 23 24 23 24 24 24 22 23 24 25 24 22 22 20 16 16 16 18 19 18 16 19 17 16 16 17 16 14
7 14 15 15 16 13 17 20 22 24 24 23 22 22 21 21 22 22 23 23 25 23 23 21 19 21 23 21 22 22 20 17 17 19 14 15 17 17 17 16 16 16 17 16 15
8 9 16 15 16 15 17 21 22 23 23 22 22 22 22 22 23 23 23 25 24 24 23 21 19 19 22 21 22 21 20 15 14 14 15 17 17 15 14 14 15 16 16 16 15
9 12 12 12 13 16 17 19 22 22 21 21 22 22 22 22 22 22 23 23 23 21 20 20 17 20 21 21 20 21 20 18 16 15 16 15 19 17 13 12 12 13 16 15 15
8 11 11 13 15 15 16 17 20 22 21 20 22 22 21 21 21 21 22 23 22 21 20 20 20 20 20 20 22 21 20 19 20 18 18 19 17 13 12 11 11 12 13 15 15
8 9 10 13 14 17 16 18 19 21 21 21 21 21 20 21 21 22 22 23 23 21 22 19 19 20 21 21 21 19 18 19 17 15 18 17 15 11 12 11 12 11 11 12 12
8 8 9 12 14 15 16 18 18 20 19 19 21 20 20 21 21 20 17 17 18 22 20 19 18 19 20 20 19 17 14 15 13 14 14 15 14 10 11 11 11 11 11 11 11
Height
780 777 774 772 770 768 766 765 763 763 762 761 761 762 762 762 761 760 756 745 746 751 753 757 765 769 771 775 777 782 808 814 799 795 780 767 771 755 747 752 751 756 759 765 777
779 775 772 770 768 766 764 762 761 760 760 759 758 759 760 759 758 752 736 738 742 746 750 754 765 768 776 776 779 788 809 797 783 774 771 769 768 764 756 756 760 764 764 768 777
778 775 771 768 766 764 762 760 758 758 757 757 756 757 757 757 757 735 731 731 736 744 748 752 759 765 775 776 779 784 792 781 772 768 765 767 766 756 757 764 755 760 768 772 779
777 773 769 766 763 761 759 758 757 756 755 755 755 755 756 757 760 730 727 727 735 743 747 753 762 769 778 782 774 781 774 771 767 761 764 765 762 763 754 756 744 748 756 766 777
776 772 768 765 762 759 758 756 755 754 754 754 753 754 756 757 744 731 730 731 736 742 744 750 761 769 775 773 772 775 768 765 762 764 766 763 765 763 758 750 748 754 764 770 776
775 771 768 764 761 758 756 754 753 752 752 752 752 753 756 759 729 729 731 732 734 740 744 745 754 756 764 765 769 761 764 760 759 761 762 764 763 756 757 751 755 759 770 775 777
774 770 766 763 759 756 754 752 750 750 750 751 751 754 755 737 727 729 731 732 735 738 744 745 747 752 755 764 756 756 765 761 760 755 758 757 766 763 758 754 760 768 771 774 777
773 769 765 761 757 754 751 749 748 748 749 750 751 755 748 724 724 725 729 733 737 741 743 745 746 749 752 750 758 761 764 774 752 756 752 754 783 763 761 761 768 770 774 778 781
772 768 764 760 756 751 748 745 745 747 748 750 753 753 740 721 720 718 723 728 736 741 744 745 746 753 752 766 778 775 778 775 764 753 754 760 778 765 763 768 772 776 780 782 785
770 765 761 758 754 750 745 743 745 747 749 751 752 755 725 717 712 715 722 726 732 740 745 746 756 765 774 777 793 776 774 770 770 755 755 770 774 771 769 771 777 782 785 787 788
767 763 759 755 752 749 747 747 751 750 746 731 726 723 713 711 711 714 719 724 729 738 754 750 766 776 768 765 758 761 766 772 766 753 756 769 778 779 778 782 784 786 788 790 792
764 759 755 752 749 747 747 744 728 724 728 718 718 718 712 711 717 715 717 728 734 748 746 759 769 754 750 758 758 760 766 770 757 753 764 778 791 784 783 786 787 791 793 793 795
761 756 751 747 743 741 739 726 723 724 729 713 710 710 706 709 716 714 712 721 732 746 749 760 747 740 747 758 761 761 765 762 763 762 766 774 795 793 785 784 787 790 793 795 798
756 752 748 741 740 738 731 720 719 726 742 719 709 699 700 702 712 702 706 716 728 743 747 748 733 739 750 753 753 761 751 748 758 770 795 774 816 798 791 791 789 792 794 796 798
750 746 744 743 740 736 721 720 719 727 763 703 699 689 691 700 698 705 701 711 732 735 740 744 732 739 747 743 742 754 745 752 759 774 782 780 800 797 796 796 792 790 791 795 797
743 738 736 731 731 714 717 719 721 745 758 707 691 698 702 697 698 701 706 704 714 728 728 734 720 722 726 733 731 749 758 768 779 786 801 782 793 804 802 781 776 783 788 794 797
734 726 726 726 716 709 712 721 743 754 711 710 704 697 700 704 705 703 717 726 738 752 748 733 728 716 720 740 741 753 771 807 803 815 810 799 799 789 777 773 772 775 784 790 795
724 714 706 704 704 710 713 723 742 723 719 698 702 702 709 704 704 706 719 731 726 733 755 754 758 727 718 735 752 756 763 798 803 822 809 796 797 782 772 770 768 766 776 787 793
714 704 700 697 700 707 714 731 726 720 703 703 705 711 713 705 704 711 721 724 722 726 747 753 747 722 722 726 733 756 773 770 806 816 813 809 791 772 771 771 771 773 776 781 786
716 707 698 695 697 705 713 718 707 700 697 702 715 716 723 719 718 718 720 717 719 718 716 733 753 730 729 723 738 739 759 777 798 811 812 811 800 794 778 773 776 777 774 779 785
716 708 696 693 700 706 717 712 703 693 693 705 713 720 719 721 716 720 720 719 711 718 716 732 742 745 733 743 754 761 769 786 793 805 813 817 809 782 773 771 773 771 771 774 780
721 708 702 700 708 715 712 701 690 691 692 700 706 711 719 722 720 721 721 718 707 714 728 731 750 760 747 746 741 746 758 770 795 798 815 816 809 778 775 770 770 768 767 771 774
724 719 700 699 714 718 708 698 692 695 698 703 708 705 708 717 724 715 714 703 703 706 721 729 753 770 759 756 742 752 758 776 786 797 808 807 799 777 779 777 774 773 773 773 775
726 719 711 708 715 713 717 709 699 692 699 699 704 703 711 716 716 720 717 712 709 717 722 727 754 749 759 757 753 760 759 769 777 800 800 800 779 777 787 789 783 780 773 773 776
729 732 731 727 718 720 716 714 708 703 699 702 706 706 713 724 723 725 718 715 710 717 723 729 753 751 748 746 744 752 760 767 767 775 782 776 784 793 794 794 791 786 778 774 775
740 741 736 728 723 713 721 717 713 706 705 710 711 710 716 721 721 722 717 715 718 720 728 729 754 749 754 750 748 764 768 765 773 781 775 778 785 794 791 792 790 791 787 783 782
748 746 744 734 734 737 736 724 718 710 712 712 710 713 720 718 713 715 719 724 725 724 737 741 751 759 764 756 762 779 785 780 790 787 786 785 788 796 793 792 793 792 792 791 788
Wind_Speed
21 20 19 18 16 15 14 13 11 10 10 10 9 8 9 11 13 8 8 15 9 15 12 20 18 7 7 3 4 4 3 5 6 7 4 1 5 5 3 9 5 6 6 10 30
22 21 19 18 17 15 14 13 11 10 9 9 8 7 7 10 11 14 27 20 15 25 20 23 9 10 3 5 3 4 5 8 7 4 3 1 3 5 1 5 4 6 14 29 27
22 21 20 18 17 16 14 13 11 9 8 8 7 6 4 7 4 8 5 5 19 29 22 18 25 7 5 3 5 6 6 5 4 6 4 4 8 2 7 4 6 13 17 18 21
24 22 22 21 18 16 15 13 11 9 8 7 5 4 2 1 5 2 9 9 23 30 21 17 6 7 6 6 6 3 7 5 5 4 3 2 8 10 4 5 7 20 24 20 17
26 25 23 21 19 17 15 13 11 8 7 6 4 1 1 1 10 8 6 20 26 25 19 8 7 6 7 7 6 5 4 6 10 8 5 1 7 6 3 1 14 18 16 17 15
26 25 24 22 20 17 16 13 11 8 7 5 2 3 2 4 4 4 6 25 26 22 14 11 9 7 5 6 7 8 11 9 5 8 5 6 3 1 4 10 14 16 12 11 11
30 28 27 24 21 19 16 14 11 7 6 4 2 3 1 15 5 4 8 21 23 19 6 11 8 6 5 5 6 3 4 4 8 5 6 8 4 4 2 10 15 12 9 8 7
31 28 28 26 23 20 16 14 10 6 4 3 4 4 7 7 7 12 13 13 17 16 7 12 9 2 2 2 4 1 2 0 3 8 4 8 5 2 2 13 13 12 8 8 6
31 29 28 27 23 20 17 13 7 3 3 6 5 3 9 7 7 11 19 10 16 14 10 6 5 2 1 4 4 4 2 4 6 6 5 3 3 3 1 10 12 10 7 8 8
33 30 29 27 24 20 12 3 9 9 7 6 2 2 7 4 5 11 17 17 6 7 2 4 3 2 3 3 4 4 2 1 4 1 6 4 1 4 4 8 11 11 8 8 10
33 33 30 28 23 17 4 6 2 1 6 10 7 4 3 5 7 6 15 6 5 4 5 3 4 6 10 6 3 4 2 3 6 5 4 7 6 4 5 7 8 8 9 11 9
36 35 31 27 22 14 6 4 7 2 5 15 8 7 11 2 4 5 21 6 4 4 4 4 6 12 6 6 4 3 3 6 4 3 6 8 6 6 6 4 5 5 7 10 5
39 36 32 28 25 11 11 18 5 6 2 6 7 6 6 10 8 6 10 6 5 6 5 6 5 8 7 5 6 5 5 4 3 6 8 11 5 4 4 4 6 6 5 6 7
40 37 31 30 3 3 8 3 7 7 2 5 4 7 6 6 4 8 11 7 2 9 7 5 5 7 5 6 7 3 6 2 6 6 5 2 3 3 1 3 4 6 6 5 6
42 40 29 17 15 5 5 6 5 5 3 3 4 9 6 9 7 5 10 5 8 6 6 8 4 5 4 8 8 6 4 3 3 7 6 5 5 1 2 5 7 10 10 8 6
44 46 33 17 14 20 10 1 4 5 5 2 4 5 4 3 3 5 5 5 4 4 3 7 4 4 5 5 5 9 5 6 6 3 3 1 5 3 6 12 9 8 9 11 8
47 49 36 15 6 2 18 4 3 4 4 1 3 3 3 4 5 5 7 6 5 4 4 5 2 1 4 9 6 6 6 4 5 5 4 5 3 7 7 5 6 15 11 12 10
52 46 19 18 13 7 6 3 4 5 5 2 2 3 5 2 2 4 10 8 0 4 3 5 3 4 2 6 7 1 5 6 4 4 4 2 3 4 4 6 6 11 14 11 10
46 22 10 4 22 21 3 4 8 6 3 1 2 2 2 2 3 4 6 11 9 8 6 4 3 1 4 4 6 2 3 3 8 4 3 2 4 8 3 5 2 9 13 14 13
24 10 7 11 21 11 3 5 6 4 4 2 1 1 2 3 3 4 5 4 6 8 4 2 1 3 3 5 6 5 5 3 3 4 3 4 3 5 5 6 3 8 14 12 8
6 4 15 4 10 4 4 5 4 4 3 3 3 3 3 3 1 2 2 4 2 5 4 5 3 2 3 1 8 3 2 7 6 4 6 3 5 6 8 9 12 12 12 13 11
6 2 3 5 3 1 4 5 3 2 3 2 4 3 6 6 4 0 2 4 3 7 7 4 5 4 2 5 1 2 4 5 5 5 2 4 6 5 6 8 7 9 12 11 12
5 3 2 2 3 3 5 3 3 3 4 6 4 3 2 3 2 2 3 1 6 4 5 5 1 4 3 5 3 6 3 5 6 4 5 5 6 4 9 10 7 5 6 8 9
2 3 4 3 1 3 4 4 2 3 3 4 4 4 4 3 3 1 2 3 3 4 8 9 2 5 8 6 5 5 4 4 5 4 4 5 5 6 12 11 11 9 4 5 5
3 1 1 3 3 2 1 5 3 4 3 6 3 3 4 3 2 1 3 3 6 4 4 4 4 1 2 5 4 5 6 5 4 4 5 4 6 4 6 7 8 8 9 3 5
3 4 5 3 3 12 9 5 5 4 4 4 4 4 4 3 5 5 4 2 2 8 7 6 5 2 2 2 6 5 6 4 4 3 1 3 3 2 3 5 7 10 11 11 10
7 4 3 6 5 4 3 6 7 3 9 6 1 4 7 3 3 4 6 7 5 4 4 4 6 4 2 3 6 2 3 1 3 3 1 4 2 5 5 9 5 5 5 7 8
Wind_Direction
343 338 335 331 328 325 320 315 311 306 296 288 285 286 291 295 299 269 238 241 230 206 171 167 176 154 142 127 114 133 82 218 204 171 230 292 11 293 250 161 142 142 120 145 147
345 341 335 331 328 326 320 315 311 303 295 291 289 289 292 305 301 248 267 260 229 179 154 142 151 142 125 155 173 129 167 216 206 205 225 241 213 289 96 132 77 67 90 128 142
346 342 338 333 328 325 320 314 310 302 296 294 289 281 300 321 313 247 311 234 198 183 170 152 146 124 142 135 186 186 212 212 236 233 297 308 313 262 146 191 211 159 142 140 147
350 345 340 336 331 325 321 314 306 301 295 293 295 290 312 332 254 359 355 185 164 172 157 129 119 129 140 178 194 181 219 206 242 239 298 327 316 329 231 324 154 151 154 149 163
348 346 344 338 332 325 318 312 304 296 289 287 282 206 107 222 251 267 20 139 156 162 155 134 142 139 165 187 145 221 242 218 238 266 248 231 265 257 270 292 127 128 144 159 165
348 346 342 339 332 325 317 310 302 293 292 288 270 129 124 250 240 240 185 158 164 171 169 151 171 197 150 186 173 210 218 236 239 244 224 196 253 140 28 135 114 129 139 165 166
350 345 344 338 332 324 316 309 303 297 286 269 208 138 230 238 173 59 182 180 176 172 149 189 177 168 138 162 228 199 224 256 227 212 212 148 312 221 94 137 123 119 137 136 165
349 344 342 337 332 325 316 305 296 287 266 225 174 168 245 256 266 238 198 189 188 173 127 210 183 141 200 218 27 127 74 66 271 152 199 128 242 235 84 135 120 119 116 102 65
348 342 339 336 332 325 317 300 279 254 208 171 157 185 264 296 251 241 185 152 164 192 221 129 143 187 9 95 16 1 199 201 312 186 118 106 195 186 78 136 121 115 109 104 87
348 343 338 335 334 327 335 307 120 117 124 141 273 323 267 247 190 153 172 142 143 129 172 152 78 106 42 101 196 203 193 312 258 102 72 83 115 85 79 135 129 122 113 100 100
346 344 337 333 331 326 338 104 79 213 217 195 191 227 280 303 144 146 159 129 122 130 145 186 120 200 213 200 175 139 127 250 242 231 131 178 130 82 74 77 109 127 123 123 104
346 341 334 329 325 312 278 224 226 247 289 223 230 268 270 5 326 103 143 126 130 163 131 64 218 216 180 166 166 204 250 275 293 7 102 124 63 65 65 84 93 117 114 133 112
344 338 332 327 316 287 226 232 236 4 248 281 187 203 208 154 205 221 149 144 151 147 162 159 231 134 140 161 176 203 201 236 179 88 62 102 43 358 16 81 98 87 104 124 141
339 336 331 331 328 303 251 60 249 231 20 266 241 251 147 164 197 187 168 141 135 187 167 224 258 200 169 194 162 198 189 130 181 98 152 59 189 257 220 111 154 142 156 150 138
335 333 325 319 293 238 245 110 116 121 336 231 193 152 163 161 148 208 173 73 156 183 133 239 196 182 158 202 151 199 124 164 98 92 107 359 83 200 138 224 219 188 176 175 165
332 330 321 317 221 246 206 89 118 52 254 319 137 146 165 177 188 110 131 92 157 157 230 226 254 202 185 68 118 143 105 54 46 82 68 223 123 270 184 207 205 178 184 165 172
330 326 312 246 228 149 195 161 73 158 305 213 94 73 232 155 165 131 141 132 161 111 255 343 311 55 113 75 32 66 61 14 16 16 201 336 58 228 231 230 201 190 175 165 166
330 325 312 250 225 155 149 86 159 218 242 322 75 14 100 360 105 160 141 180 124 100 110 165 356 162 184 134 175 160 135 145 166 184 261 354 220 252 222 283 257 186 165 160 172
330 323 293 295 209 198 119 158 188 202 205 83 87 91 98 14 109 92 150 185 192 169 155 138 259 290 30 129 127 189 76 140 103 18 68 258 297 320 350 331 191 161 165 175 180
321 317 288 304 165 155 98 208 175 200 115 72 105 33 96 339 75 62 146 196 158 190 131 209 106 344 150 82 44 107 141 90 20 131 211 278 282 230 275 249 201 186 188 180 174
318 335 348 153 138 63 168 209 203 200 122 138 154 117 135 174 125 113 116 180 205 147 114 134 111 259 64 116 168 144 146 57 110 122 163 196 257 218 217 213 204 208 200 188 173
337 46 85 16 69 88 152 185 212 242 112 124 116 132 167 189 183 133 64 206 123 167 146 172 143 152 177 294 193 61 133 129 124 206 125 147 266 16 315 263 221 212 199 193 187
322 284 333 159 76 10 319 315 195 180 187 153 145 178 115 121 105 167 165 241 28 54 144 161 289 97 26 349 22 84 79 94 104 82 185 147 257 96 33 19 356 265 248 209 197
331 22 333 49 158 61 7 324 112 33 75 101 102 89 96 57 65 174 266 52 78 102 78 78 115 153 189 202 143 109 105 107 103 115 173 223 280 353 15 6 343 332 259 199 222
10 16 334 6 343 161 4 338 317 65 68 33 56 133 138 112 35 263 206 353 40 104 66 107 101 233 64 123 97 113 140 158 157 164 157 238 195 34 347 356 349 343 359 258 221
50 9 343 329 324 26 21 334 15 26 33 18 111 88 91 116 194 173 153 93 92 28 20 359 138 126 99 91 76 82 42 71 59 34 236 134 148 23 308 356 13 10 6 15 4
355 334 299 353 10 80 276 309 358 346 17 48 20 90 76 37 17 39 56 62 64 110 200 145 137 106 226 153 119 45 313 46 110 61 332 180 46 1 336 337 332 3 14 7 354